[[{"header":{"parameterUnit":"m.s-1","parameterCategory":1,"la1":30.2991,"la2":30.254,"lo1":-89.0895,"lo2":-89.0444,"dy":0.0017,"dx":0.0017,"nx":28,"ny":28,"refTime":"2025-04-22T21:00:00:Z","depth":0,"parameterNumber":2,"parameterNumberName":"U-component_of_WINDS"},"data":[0,0,0,0,0,0,0,0,0,0,0,0,0,0,0,0,0,0,0,0,0,0,0,0,0,0,0,0,0,0,0,0,0,0,0,0,0,0,0,0,0,0,0,0,0,0,0,0,0,0,0,0,0,0,0,0,0,0,-2.3864,-2.3864,0,-2.3869,-2.3869,-2.3869,-2.3816,-2.3815,-2.3813,-2.3812,-2.3818,-2.3819,-2.3821,0,0,0,0,0,0,0,0,0,0,0,0,0,-2.3808,-2.3809,-2.3864,-2.3864,-2.3864,-2.3869,-2.3869,-2.3869,-2.3817,-2.3815,-2.3813,-2.3811,-2.3817,-2.3819,-2.3821,0,0,0,0,0,0,0,0,0,0,0,0,0,-2.3825,-2.3809,-2.3864,-2.3838,-2.3836,-2.3869,-2.3869,-2.3869,-2.3817,-2.3815,-2.3813,-2.3811,-2.3817,-2.3819,-2.3821,-2.3879,0,0,-2.3828,-2.3829,0,0,0,0,0,0,0,0,-2.3824,-2.3827,-2.3842,-2.384,-2.3837,-2.384,-2.3852,-2.3873,-2.3818,-2.3824,-2.3812,-2.3809,-2.3827,-2.3828,-2.3834,-2.388,-2.388,-2.3828,-2.383,-2.3831,-2.3831,0,0,0,0,0,0,0,-2.3823,-2.3826,-2.3866,-2.3842,-2.3839,-2.3827,-2.3826,-2.3855,-2.3838,-2.3823,-2.382,-2.3821,-2.3825,-2.3832,-2.3834,-2.388,-2.3828,-2.383,-2.3832,-2.3833,-2.3974,-2.3976,0,0,0,0,0,0,-2.3825,-2.3825,-2.3866,-2.3866,-2.3825,-2.3829,-2.3829,-2.3841,-2.3837,-2.3835,-2.3823,-2.3818,-2.3829,-2.3831,-2.3834,-2.3901,-2.3831,-2.3833,-2.3834,-2.3971,-2.3974,-2.3977,0,0,0,0,0,0,-2.3824,-2.3829,-2.3865,-2.3845,-2.3848,-2.3833,-2.3847,-2.3843,-2.3849,-2.3837,-2.3834,-2.3833,-2.3828,-2.3831,-2.3868,-2.3901,-2.3834,-2.3836,-2.3968,-2.3972,-2.3975,-2.4037,0,0,0,0,0,0,-2.3822,-2.3829,-2.3851,-2.3846,-2.385,-2.39,-2.3849,-2.3844,-2.3853,-2.3848,-2.3845,-2.3843,-2.3826,-2.3865,-2.3871,-2.3903,-2.3838,-2.3965,-2.397,-2.3974,-2.4032,-2.4043,-2.4051,0,0,0,0,0,-2.3821,-2.3868,-2.3852,-2.3857,-2.3876,-2.3902,-2.3904,-2.3884,-2.3856,-2.3878,-2.387,-2.3843,-2.3897,-2.387,-2.3875,-2.3909,-2.3963,-2.3969,-2.3974,-2.4028,-2.4041,-2.4051,0,0,0,0,0,0,-2.3877,-2.3867,-2.3849,-2.3896,-2.39,-2.3893,-2.3919,-2.3898,-2.391,-2.3904,-2.3878,-2.3878,-2.392,-2.3918,-2.3888,-2.3965,-2.3925,-2.3932,-2.3964,-2.3976,-2.3986,-2.3985,-2.384,0,0,0,0,0,-2.3895,-2.3916,-2.3906,-2.3948,-2.3951,-2.3936,-2.3946,-2.393,-2.3933,-2.3935,-2.3929,-2.3934,-2.3952,-2.3964,-2.398,-2.4032,-2.4031,-2.4058,-2.4067,-2.4075,-2.4081,-2.4109,-2.4121,-2.3994,-2.3994,-2.3994,0,0,-2.3932,-2.3929,-2.3944,-2.396,-2.3961,-2.3984,-2.3937,-2.3963,-2.398,-2.3938,-2.3974,-2.3971,-2.3974,-2.4019,-2.4039,-2.4019,-2.4116,-2.4082,-2.4089,-2.409,-2.4116,-2.4128,-2.4138,-2.3998,-2.3997,-2.3997,0,0,-2.401,-2.4011,-2.4046,-2.4049,-2.4051,-2.404,-2.4049,-2.4046,-2.4042,-2.4077,-2.4046,-2.4066,-2.4097,-2.4101,-2.4107,-2.4188,-2.4164,-2.4194,-2.4244,-2.4271,-2.4281,-2.429,-2.4319,-2.4329,-2.42,-2.4201,-2.4201,0,-2.4056,-2.4089,-2.4067,-2.4095,-2.4103,-2.4067,-2.4103,-2.4106,-2.4114,-2.4121,-2.4098,-2.4137,-2.4137,-2.4182,-2.4202,-2.4209,-2.4218,-2.4194,-2.4281,-2.429,-2.4298,-2.4325,-2.4336,-2.4204,-2.4204,-2.4203,-2.4203,0,-2.4145,-2.4168,-2.4196,-2.4205,-2.4216,-2.4248,-2.4231,-2.4245,-2.4229,-2.4221,-2.4257,-2.4256,-2.427,-2.428,-2.4264,-2.4324,-2.4311,-2.4286,-2.4245,-2.4314,-2.4339,-2.4349,-2.4209,-2.4208,-2.4207,-2.4206,0,0,-2.4258,-2.4255,-2.4266,-2.4269,-2.427,-2.4288,-2.4318,-2.4333,-2.4346,-2.4353,-2.4378,-2.4405,-2.4382,-2.4389,-2.4373,-2.4397,-2.4462,-2.4368,-2.4368,-2.4385,-2.4527,-2.4546,-2.4559,-2.4446,-2.4448,-2.4449,-2.4527,0,-2.4335,-2.4386,-2.4368,-2.442,-2.4442,-2.4409,-2.4435,-2.4439,-2.4432,-2.445,-2.4442,-2.4462,-2.443,-2.4434,-2.4456,-2.4449,-2.449,-2.4443,-2.4468,-2.447,-2.4468,-2.4572,-2.4592,-2.4665,-2.4537,-2.4538,-2.4539,0,-2.4431,-2.4442,-2.4497,-2.4494,-2.4503,-2.4527,-2.4539,-2.4556,-2.456,-2.4553,-2.4562,-2.4541,-2.4571,-2.4531,-2.4572,-2.4541,-2.4551,-2.4549,-2.4551,-2.4552,-2.4508,-2.4575,-2.4688,-2.4699,-2.4555,-2.4553,-2.4552,0,-2.4508,-2.4536,-2.4573,-2.4577,-2.4575,-2.4593,-2.4593,-2.4595,-2.4605,-2.4616,-2.4622,-2.4637,-2.4644,-2.4656,-2.464,-2.4613,-2.4683,-2.4642,-2.4679,-2.4679,-2.4694,-2.4693,-2.481,-2.4702,-2.4702,-2.4701,-2.4701,0,-2.4595,-2.463,-2.4607,-2.463,-2.4668,-2.4647,-2.4685,-2.4682,-2.4683,-2.4705,-2.4677,-2.4698,-2.4676,-2.4694,-2.4682,-2.4718,-2.4722,-2.4717,-2.4713,-2.4719,-2.472,-2.4725,-2.4719,-2.4704,-2.4704,-2.4703,-2.4703,0,-2.4687,-2.4673,-2.4711,-2.4706,-2.4706,-2.4734,-2.473,-2.4751,-2.4743,-2.477,-2.4776,-2.4763,-2.4783,-2.4769,-2.4789,-2.4781,-2.4828,-2.4817,-2.4827,-2.4824,-2.4861,-2.4857,-2.4984,-2.4999,-2.4882,-2.4883,-2.4884,0,-2.4743,-2.4769,-2.4767,-2.4779,-2.4781,-2.4802,-2.4812,-2.4792,-2.4804,-2.4811,-2.4831,-2.4849,-2.4863,-2.4897,-2.489,-2.4906,-2.4895,-2.4938,-2.4897,-2.4902,-2.4895,-2.4894,-2.4896,-2.4946,-2.4948,-2.4949,-2.495,0,-2.4844,-2.4836,-2.4852,-2.4866,-2.4879,-2.4889,-2.4897,-2.4908,-2.4888,-2.4903,-2.4924,-2.4935,-2.4956,-2.4974,-2.4988,-2.4988,-2.4966,-2.4963,-2.4972,-2.4978,-2.4982,-2.498,-2.4849,-2.496,-2.4959,-2.4958,-2.4957,-2.4957,-2.4919,-2.4941,-2.4943,-2.4962,-2.4966,-2.4974,-2.4993,-2.4987,-2.5004,-2.502,-2.5007,-2.5032,-2.5036,-2.5051,-2.5054,-2.5074,-2.5056,-2.5069,-2.5073,-2.5076,-2.5081,-2.498,-2.5076,-2.5076,-2.5076,-2.5075,-2.5075,0,-2.5019,-2.5019,-2.5036,-2.5048,-2.5063,-2.5041,-2.5048,-2.5062,-2.5085,-2.509,-2.5104,-2.5128,-2.5146,-2.514,-2.5156,-2.5173,-2.5163,-2.5178,-2.5176,-2.5177,-2.5096,-2.5086,-2.5186,-2.5186,-2.5186,-2.5186,-2.5186,-2.5185,-2.5072,-2.5108,-2.51,-2.5138,-2.5137,-2.5161,-2.5168,-2.5175,-2.5179,-2.5207,-2.5222,-2.5218,-2.5219,-2.5235,-2.5251,-2.5249,-2.5256,-2.5274,-2.5269,-2.5193,-2.5182,-2.5172,-2.5163,-2.5276,-2.5276,-2.5347,-2.5348,-2.5348]},{"header":{"parameterUnit":"m.s-1","parameterCategory":1,"la1":30.2991,"la2":30.254,"lo1":-89.0895,"lo2":-89.0444,"dy":0.0017,"dx":0.0017,"nx":28,"ny":28,"refTime":"2025-04-22T21:00:00:Z","depth":0,"parameterNumber":3,"parameterNumberName":"V-component_of_WINDS"},"data":[0,0,0,0,0,0,0,0,0,0,0,0,0,0,0,0,0,0,0,0,0,0,0,0,0,0,0,0,0,0,0,0,0,0,0,0,0,0,0,0,0,0,0,0,0,0,0,0,0,0,0,0,0,0,0,0,0,0,2.4347,2.4347,0,2.4363,2.4363,2.4363,2.4348,2.4348,2.4347,2.4346,2.4361,2.4362,2.4363,0,0,0,0,0,0,0,0,0,0,0,0,0,2.4301,2.4302,2.4347,2.4347,2.4347,2.4363,2.4363,2.4363,2.4348,2.4348,2.4347,2.4346,2.4361,2.4362,2.4363,0,0,0,0,0,0,0,0,0,0,0,0,0,2.4319,2.4303,2.4347,2.4342,2.4341,2.4363,2.4363,2.4363,2.4348,2.4348,2.4347,2.4346,2.436,2.4362,2.4363,2.4389,0,0,2.4367,2.4368,0,0,0,0,0,0,0,0,2.4318,2.4321,2.4342,2.4342,2.4342,2.4353,2.4352,2.4372,2.4349,2.4346,2.4346,2.4345,2.4359,2.436,2.4365,2.439,2.4391,2.4367,2.4368,2.4369,2.4369,0,0,0,0,0,0,0,2.4317,2.432,2.4353,2.4342,2.4342,2.4338,2.4339,2.4356,2.4357,2.4346,2.4345,2.4347,2.4358,2.4364,2.4365,2.4391,2.4367,2.4369,2.4369,2.437,2.4439,2.4439,0,0,0,0,0,0,2.4317,2.4319,2.4352,2.4353,2.4328,2.4339,2.4341,2.435,2.4357,2.4357,2.4348,2.4346,2.4362,2.4364,2.4366,2.4397,2.4369,2.437,2.4371,2.4438,2.4439,2.444,0,0,0,0,0,0,2.4316,2.432,2.4352,2.4336,2.434,2.4341,2.4351,2.4351,2.4356,2.4358,2.4358,2.4353,2.4361,2.4364,2.4384,2.4397,2.4371,2.4372,2.4436,2.4438,2.4439,2.446,0,0,0,0,0,0,2.4315,2.432,2.433,2.4337,2.4341,2.437,2.4352,2.4352,2.4359,2.4357,2.4363,2.4363,2.4361,2.4382,2.4385,2.4399,2.4373,2.4435,2.4437,2.4439,2.4459,2.4462,2.4466,0,0,0,0,0,2.4313,2.4335,2.4331,2.4335,2.4354,2.4371,2.4373,2.437,2.436,2.437,2.4372,2.4363,2.4396,2.4384,2.4388,2.4402,2.4434,2.4437,2.4439,2.4457,2.4462,2.4466,0,0,0,0,0,0,2.4329,2.4336,2.4331,2.4356,2.4363,2.4368,2.4381,2.4375,2.4385,2.4383,2.4378,2.438,2.4401,2.4403,2.439,2.4428,2.4413,2.4416,2.4426,2.443,2.4434,2.4433,2.4374,0,0,0,0,0,2.4336,2.435,2.4354,2.4375,2.438,2.438,2.4387,2.4384,2.4391,2.4394,2.4397,2.4403,2.4415,2.4423,2.4434,2.4459,2.446,2.4471,2.4474,2.4477,2.448,2.4493,2.4498,2.4447,2.4447,2.4447,0,0,2.4349,2.4354,2.4363,2.4379,2.4384,2.4398,2.4382,2.4398,2.4408,2.4396,2.4415,2.4418,2.4425,2.4448,2.4458,2.445,2.4494,2.448,2.4482,2.4483,2.4496,2.4501,2.4505,2.4449,2.4448,2.4448,0,0,2.4381,2.4386,2.4405,2.4411,2.4419,2.4419,2.4424,2.443,2.4432,2.4451,2.4443,2.4454,2.4475,2.448,2.4485,2.452,2.4512,2.4523,2.4542,2.4556,2.456,2.4563,2.4575,2.458,2.4526,2.4526,2.4526,0,2.4396,2.4417,2.4415,2.4431,2.4438,2.4429,2.4447,2.4453,2.4464,2.4469,2.4461,2.4486,2.449,2.4514,2.4523,2.4528,2.4532,2.4522,2.4559,2.4563,2.4566,2.4578,2.4582,2.4527,2.4527,2.4527,2.4527,0,2.4436,2.4451,2.4465,2.4477,2.4485,2.4503,2.4502,2.4511,2.4508,2.4508,2.4528,2.4533,2.4545,2.455,2.4547,2.4574,2.4569,2.456,2.4545,2.4572,2.4583,2.4588,2.4529,2.4529,2.4528,2.4528,0,0,2.4478,2.4489,2.4494,2.4499,2.4508,2.452,2.4536,2.4549,2.4556,2.4564,2.4578,2.4596,2.4588,2.4594,2.4591,2.4603,2.4629,2.4592,2.4592,2.4599,2.466,2.4666,2.4671,2.4625,2.4626,2.4626,2.4659,0,2.451,2.454,2.4538,2.4566,2.4579,2.4571,2.4586,2.4592,2.4594,2.4605,2.4606,2.4619,2.4607,2.4611,2.4622,2.4624,2.4642,2.4621,2.4637,2.4638,2.4635,2.4677,2.4684,2.4715,2.4663,2.4664,2.4664,0,2.4551,2.4561,2.4591,2.4598,2.4604,2.4617,2.4628,2.464,2.4647,2.4647,2.4654,2.465,2.4666,2.4651,2.4673,2.4659,2.4666,2.4667,2.4668,2.467,2.4653,2.4679,2.4725,2.4729,2.4671,2.4671,2.467,0,2.4578,2.46,2.4621,2.4626,2.4635,2.4644,2.4648,2.4655,2.4662,2.4672,2.4677,2.4688,2.4694,2.4702,2.4701,2.469,2.4723,2.4708,2.4724,2.4724,2.4731,2.473,2.4778,2.4735,2.4735,2.4735,2.4735,0,2.4614,2.4633,2.4633,2.4646,2.4666,2.4664,2.4684,2.4686,2.4693,2.4705,2.4698,2.471,2.4707,2.4719,2.4717,2.4736,2.4739,2.4739,2.4738,2.4739,2.4739,2.4743,2.4741,2.4736,2.4736,2.4736,2.4736,0,2.4648,2.465,2.4671,2.4679,2.4681,2.4695,2.4701,2.4713,2.4714,2.473,2.4733,2.4735,2.4748,2.4747,2.4762,2.4761,2.4784,2.4781,2.4782,2.4781,2.4797,2.4795,2.4848,2.4855,2.4808,2.4809,2.4809,0,2.4671,2.4685,2.4694,2.4703,2.4708,2.4721,2.4729,2.4727,2.4736,2.4746,2.4756,2.4769,2.4779,2.4801,2.4802,2.4814,2.4811,2.4829,2.4812,2.4813,2.4811,2.481,2.4811,2.4832,2.4832,2.4833,2.4833,0,2.4712,2.4712,2.4724,2.4736,2.4746,2.4756,2.4765,2.4772,2.4771,2.478,2.4794,2.4802,2.4818,2.4831,2.4842,2.4845,2.4839,2.4838,2.4842,2.4844,2.4844,2.4844,2.479,2.4837,2.4836,2.4836,2.4836,2.4836,2.4741,2.4753,2.4761,2.4775,2.4782,2.479,2.4802,2.4805,2.4816,2.4829,2.4827,2.4843,2.485,2.4864,2.4869,2.4881,2.4874,2.488,2.4882,2.4883,2.4885,2.4842,2.4882,2.4882,2.4882,2.4882,2.4882,0,2.4781,2.4786,2.4799,2.4812,2.4823,2.4817,2.4826,2.4835,2.4849,2.4857,2.4867,2.4883,2.4896,2.4899,2.4911,2.4919,2.4917,2.4923,2.4922,2.4923,2.489,2.4885,2.4925,2.4925,2.4925,2.4925,2.4925,2.4925,2.4803,2.4824,2.4825,2.4848,2.4853,2.4869,2.4875,2.4882,2.4888,2.4907,2.4917,2.492,2.4925,2.4938,2.4949,2.4949,2.4954,2.4961,2.496,2.4929,2.4925,2.4921,2.4916,2.4962,2.4962,2.4992,2.4992,2.4992]}]]